TimeCST,TemperatureF,Dew PointF,Humidity,Sea Level PressureIn,VisibilityMPH,Wind Direction,Wind SpeedMPH,Gust SpeedMPH,PrecipitationIn,Events,Conditions,WindDirDegrees,DateUTC
12:53 AM,63.0,61.0,93,30.01,-9999.0,Calm,Calm,-,N/A,,Unknown,0,2012-12-06 06:53:00
1:53 AM,63.0,61.0,93,30.01,-9999.0,Calm,Calm,-,N/A,,Unknown,0,2012-12-06 07:53:00
2:53 AM,63.0,61.0,93,30.00,-9999.0,Calm,Calm,-,N/A,,Unknown,0,2012-12-06 08:53:00
3:53 AM,63.0,61.0,93,29.98,-9999.0,Calm,Calm,-,N/A,,Unknown,0,2012-12-06 09:53:00
4:53 AM,63.0,61.0,93,29.97,-9999.0,North,3.5,-,N/A,,Unknown,10,2012-12-06 10:53:00
5:53 AM,63.0,61.0,93,29.99,-9999.0,Calm,Calm,-,N/A,,Unknown,0,2012-12-06 11:53:00
6:53 AM,63.0,61.0,93,30.00,-9999.0,Calm,Calm,-,N/A,,Unknown,0,2012-12-06 12:53:00
7:53 AM,63.0,61.0,93,29.99,-9999.0,Calm,Calm,-,N/A,,Unknown,0,2012-12-06 13:53:00
8:53 AM,64.0,61.0,90,30.01,-9999.0,Calm,Calm,-,N/A,,Unknown,0,2012-12-06 14:53:00
9:53 AM,68.0,59.0,73,30.01,-9999.0,Variable,3.5,-,N/A,,Unknown,0,2012-12-06 15:53:00
10:53 AM,66.9,62.1,84,30.00,-9999.0,SW,3.5,-,N/A,,Unknown,230,2012-12-06 16:53:00
11:53 AM,68.0,62.1,81,29.98,-9999.0,WSW,5.8,-,N/A,,Unknown,250,2012-12-06 17:53:00
12:53 PM,68.0,61.0,78,29.96,-9999.0,West,4.6,-,N/A,,Unknown,260,2012-12-06 18:53:00
1:53 PM,68.0,60.1,76,29.94,-9999.0,West,4.6,-,N/A,,Unknown,260,2012-12-06 19:53:00
2:53 PM,69.1,59.0,70,29.93,-9999.0,Variable,4.6,-,N/A,,Unknown,0,2012-12-06 20:53:00
3:53 PM,68.0,57.9,70,29.93,-9999.0,West,3.5,-,N/A,,Unknown,280,2012-12-06 21:53:00
4:53 PM,66.9,59.0,76,29.92,-9999.0,Calm,Calm,-,N/A,,Unknown,0,2012-12-06 22:53:00
5:53 PM,64.0,59.0,84,29.93,-9999.0,Calm,Calm,-,N/A,,Unknown,0,2012-12-06 23:53:00
6:53 PM,64.0,59.0,84,29.95,-9999.0,Calm,Calm,-,N/A,,Unknown,0,2012-12-07 00:53:00
7:53 PM,62.1,59.0,90,29.94,-9999.0,Calm,Calm,-,N/A,,Unknown,0,2012-12-07 01:53:00
8:53 PM,63.0,60.1,90,29.95,-9999.0,Calm,Calm,-,N/A,,Unknown,0,2012-12-07 02:53:00
9:53 PM,62.1,59.0,90,29.94,-9999.0,Calm,Calm,-,N/A,,Unknown,0,2012-12-07 03:53:00
10:53 PM,61.0,57.9,90,29.95,-9999.0,Calm,Calm,-,N/A,,Unknown,0,2012-12-07 04:53:00
11:53 PM,62.1,60.1,93,29.95,-9999.0,Calm,Calm,-,N/A,,Unknown,0,2012-12-07 05:53:00